Location: Claremont
(33.9858°S, 18.4575°E)
Time: 11:16:56
(UTC+00:00)

BREEZE M DEB (TANK) - Pass Details

Date: 03 March 2021
Orbit: 342 x 13620 km, 49.6° (Epoch: 09 April)

Event Time Altitude Azimuth Distance (km) Brightness Sun altitude
Rises 19:52:22 0° 233° (SW) 7,464 9.7 -30.3°
Reaches altitude 10° 19:59:18 10° 230° (SW) 4,683 8.4 -31.5°
Enters shadow 20:07:40 54° 204° (SSW) 1,074 4.4 -32.9°
